GW4540 Weather Reports


time (UTC)temp
C
wind
direction
speed
KPH
gust
KPH
rain 1hr
cm
rain 24hr
cm
rain mn
cm
humidity
%
barometer
mb
20260502170441 30 166 8.0 11.3 0.00 0.00 0.00 20 1014.4
20260502163438 30 196 3.2 4.8 0.00 0.00 0.00 20 1014.2
20260502161936 28 80 3.2 3.2 0.00 0.00 0.00 23 1014.4
20260502160434 28 97 3.2 3.2 0.00 0.00 0.00 22 1014.1
20260502151929 27 184 4.8 8.0 0.00 0.00 0.00 24 1013.8
20260502150425 27 80 4.8 9.7 0.00 0.00 0.00 23 1013.6
20260502130404 21 126 0.0 0.0 0.00 0.00 0.00 23 1012.3
20260502123358 22 78 1.6 1.6 0.00 0.00 0.00 22 1011.8
20260502121856 22 61 4.8 4.8 0.00 0.00 0.00 21 1011.8
20260502120352 20 97 1.6 1.6 0.00 0.00 0.00 25 1011.8
20260502114848 18 133 0.0 0.0 0.00 0.00 0.00 28 1011.6
20260502113346 19 128 0.0 0.0 0.00 0.00 0.00 28 1011.6
20260502111845 20 136 0.0 1.6 0.00 0.00 0.00 25 1011.3
20260502110343 21 117 0.0 0.0 0.00 0.00 0.00 23 1011.5
20260502104841 21 52 0.0 1.6 0.00 0.00 0.00 23 1011.4
20260502103338 22 10 3.2 3.2 0.00 0.00 0.00 21 1011.3
20260502101835 22 23 3.2 3.2 0.00 0.00 0.00 21 1011.1
20260502100330 21 124 0.0 0.0 0.00 0.00 0.00 23 1011.1
20260502090320 23 66 3.2 3.2 0.00 0.00 0.00 21 1010.7
20260502070303 23 136 0.0 1.6 0.00 0.00 0.00 19 1010.1
20260502064758 24 154 1.6 1.6 0.00 0.00 0.00 19 1010.3
20260502063256 25 149 1.6 1.6 0.00 0.00 0.00 18 1010.1
20260502061755 25 176 1.6 1.6 0.00 0.00 0.00 18 1009.7
20260502060254 25 110 3.2 4.8 0.00 0.00 0.00 18 1009.6
20260502054749 25 182 4.8 4.8 0.00 0.00 0.00 18 1009.7
20260502053246 25 167 1.6 1.6 0.00 0.00 0.00 19 1009.7
20260502051746 25 179 1.6 1.6 0.00 0.00 0.00 19 1009.4
20260502050242 26 156 1.6 1.6 0.00 0.00 0.00 18 1009.5
20260502044739 26 124 0.0 0.0 0.00 0.00 0.00 18 1009.4
20260502043236 26 142 0.0 0.0 0.00 0.00 0.00 17 1009.3
20260502041736 27 132 1.6 1.6 0.00 0.00 0.00 16 1008.8
20260502040233 27 151 1.6 1.6 0.00 0.00 0.00 16 1008.9
20260502034729 27 201 1.6 1.6 0.00 0.00 0.00 16 1008.6
20260502033229 28 207 3.2 3.2 0.00 0.00 0.00 16 1008.7
20260502031725 28 170 1.6 1.6 0.00 0.00 0.00 15 1008.7
20260502030224 28 186 1.6 1.6 0.00 0.00 0.00 16 1008.3
20260502024723 29 216 1.6 3.2 0.00 0.00 0.00 16 1008.3
20260502023221 29 205 1.6 1.6 0.00 0.00 0.00 15 1008.3
20260502021718 30 172 1.6 3.2 0.00 0.00 0.00 15 1008.2
20260502020215 30 205 1.6 3.2 0.00 0.00 0.00 14 1008.4
20260502014713 31 181 3.2 4.8 0.00 0.00 0.00 14 1008.1
20260502013213 31 189 6.4 9.7 0.00 0.00 0.00 14 1008.0
20260502011711 31 139 1.6 1.6 0.00 0.00 0.00 14 1007.9
20260502010207 32 162 3.2 3.2 0.00 0.00 0.00 13 1008.4
20260502004703 32 160 4.8 4.8 0.00 0.00 0.00 14 1008.1
20260502003201 32 179 4.8 4.8 0.00 0.00 0.00 14 1008.3
20260502001657 32 205 4.8 4.8 0.00 0.00 0.00 14 1008.1
20260502000156 32 220 8.0 9.7 0.00 0.00 0.00 14 1008.3
20260501234655 32 236 1.6 3.2 0.00 0.00 0.00 15 1008.6
20260501233153 32 199 8.0 11.3 0.00 0.00 0.00 16 1008.3
20260501231650 33 211 3.2 4.8 0.00 0.00 0.00 15 1008.3
20260501230150 32 185 11.3 12.9 0.00 0.00 0.00 16 1008.3
20260501224646 31 169 4.8 4.8 0.00 0.00 0.00 16 1008.4
20260501223142 31 100 3.2 3.2 0.00 0.00 0.00 16 1008.8
20260501221638 31 173 9.7 14.5 0.00 0.00 0.00 17 1008.9
20260501220136 31 271 9.7 11.3 0.00 0.00 0.00 17 1008.9
20260501214634 31 168 3.2 3.2 0.00 0.00 0.00 17 1009.5
20260501213129 31 185 3.2 4.8 0.00 0.00 0.00 16 1009.5
20260501211625 32 172 1.6 1.6 0.00 0.00 0.00 16 1010.0
20260501210122 30 165 11.3 12.9 0.00 0.00 0.00 16 1010.1
20260501204618 30 221 1.6 3.2 0.00 0.00 0.00 16 1010.2
20260501203115 30 208 3.2 4.8 0.00 0.00 0.00 19 1010.6
20260501201611 30 149 1.6 1.6 0.00 0.00 0.00 19 1010.8
20260501200108 30 174 6.4 9.7 0.00 0.00 0.00 20 1010.9
20260501194608 30 248 4.8 4.8 0.00 0.00 0.00 20 1011.0
20260501193106 28 247 4.8 8.0 0.00 0.00 0.00 22 1011.5
20260501191603 28 186 1.6 1.6 0.00 0.00 0.00 22 1011.8
20260501184602 27 206 4.8 8.0 0.00 0.00 0.00 24 1011.9
20260501183102 28 215 4.8 4.8 0.00 0.00 0.00 24 1012.2
20260501181559 27 82 1.6 3.2 0.00 0.00 0.00 23 1012.4
20260501180055 28 123 3.2 4.8 0.00 0.00 0.00 22 1012.5
20260501174552 26 153 1.6 1.6 0.00 0.00 0.00 25 1012.4
20260501173049 26 120 1.6 1.6 0.00 0.00 0.00 26 1012.8